ATLAS 5 CENTAUR DEB, 44675

Orbit data source: Space-Track

ATLAS 5 CENTAUR DEB, 44675 is space debris in HEO originally from a launch on Wed, 17 Oct 2018 UTC launched from the Air Force Eastern Test Range (AFETR). Debris objects in space refer to the collection of defunct objects orbiting the Earth. Examples of debris include non-operational satellites, rocket bodies, and fragments generated from explosions, collisions, or faulty payload assembly.

Loading next visibility...
Identifier
44675, 2018-079AM
Orbit
HEO
Country
Flag of USUS
Related business
Flag of USUnited Launch Alliance/Lockheed Martin (US)
Manufacturer
ULA Decatur
Mission
Spacecraft
Bus & Motor
Unknown
Mass
Unknown
Launch date (UTC)
2018-10-17 (7 years ago)
Launch vehicle
Unknown
Launch site
Air Force Eastern Test Range (AFETR)
Object type
Payload
Rocket body
Debris
Shape & HBR
Unknown
Radar Cross Section
RCS unknown

Expand to show TLE details & history
Last TLE update: 1 day ago

TLE from 1 day ago
0 ATLAS 5 CENTAUR DEB
1 44675U 18079AM  25241.65059725 -.00000187  00000-0  00000-0 0  9991
2 44675  13.1025  62.0941 4664477 259.3903  46.6271  1.80468481 41697
Epoch: 2025-08-29T15:36Z
TLE epoch observation values (Epoch: 2025-08-29T15:36:51.602Z)
Latitude
-0.00004°
Longitude
-150.13772°
Altitude
17,996.569 km
Speed
4.327 km/s
True Right ascension
04h 08m 41s
True Declination
0° 00' 00"
Sunlit
Object was in daylight at epoch
Visualization orbit readout
Latitude
Unknown
Longitude
Unknown
Altitude
Unknown
Speed
Unknown
Apparent Right ascension
Unknown
Apparent Declination
Unknown
Sunlit
N/A
Visualization observer readout
Local Sidereal Time
16:49:52
Azimuth
Unknown
Elevation
Unknown
Doppler factor
Unknown
Orbital elements
Apogee altitude
35,414.443 km
Perigee altitude
8,827.675 km
Semi-major axis
28,499.196 km
Eccentricity
0.46645
Inclination
13.1025°
RAAN
62.0941°
Arg. of periapsis
259.3903°
True anomaly
100.65337°
Mean anomaly
46.6271°
Eccentric anomaly
72.05204°
Mean motion
0.45112 °/min
Orbital period
798.01 mins
BSTAR
0
Loading maneuver chart data...
Computing Atmospheric mass density...

Documentation

Showing up to 5 results
|